Volver al catálogo

METEOR 2-11 DEB

ActivoPO
NORAD 40317·DEBRIS·🇷🇺 Russia

Lanzado Jul 5, 1984 desde Plesetsk Cosmodrome

Loading…

Próximos Pases (próximas 24 horas)

TLE

ActualizadoSource: Space-Track

Época: Sep 13, 2026, 10:24 UTC

1 40317U 84072C   26256.43373203  .00001458  00000-0  98769-3 0  9992
2 40317  82.5168 293.6948 0011904 156.1115 204.0608 13.99603111598380

Sigue METEOR 2-11 DEB en tiempo real con AllMySat

Download on the App Store